Regional Weather Roundup
Issued by NWS

Home | Current Version | Previous Version | Text Only | Print | Product List | Glossary Off
Versions: 1 2 3 4 5 6 7 8 9 10 11 12 13 14 15 16 17 18 19 20 21 22 23 24 25 26 27 28 29 30 31 32 33 34 35 36 37 38 39 40 41 42 43 44 45 46 47 48 49 50

000
ASUS43 KLSX 040907
RWRMO

WEATHER SUMMARY FOR MISSOURI
NATIONAL WEATHER SERVICE SPRINGFIELD MO
300 AM CST WED MAR 04 2015

NOTE: "FAIR" INDICATES FEW OR NO CLOUDS BELOW 12,000 FEET WITH NO
       SIGNIFICANT WEATHER AND/OR OBSTRUCTIONS TO VISIBILITY.
       CURRENT SKY AND/OR WEATHER CONDITIONS ARE NOT AVAILABLE FOR
       CHILLICOTHE AND FARMINGTON.

MOZ001>031-035>038-043-044-053-054-041000-
...NORTHERN AND WESTERN MISSOURI...

CITY           SKY/WX    TMP DP  RH WIND       PRES   REMARKS
KANSAS CTY INT CLOUDY    20  10  65 N21       30.13S WCI   4
KANSAS C DTWN  CLOUDY    23  11  60 N18G24    30.14R WCI   9
LEE`S SUMMIT   CLOUDY    24  15  68 N17       30.10R WCI  11
ST JOSEPH      CLOUDY    19   7  59 N16       30.18F WCI   4
CHILLICOTHE      N/A     21  12  68 N8        30.17R WCI  11

$$
MOZ066>068-077>081-088>096-101>105-041000-
...SOUTHWEST MISSOURI...

CITY           SKY/WX    TMP DP  RH WIND       PRES   REMARKS
SPRINGFIELD    CLOUDY    34  29  82 N15       29.94S WCI  24
JOPLIN         CLOUDY    34  29  82 N10G22    29.99R WCI  26

$$
MOZ032>034-039>042-045>050-055>058-069>072-041000-
...CENTRAL MISSOURI...

CITY           SKY/WX    TMP DP  RH WIND       PRES   REMARKS
COLUMBIA       CLOUDY    31  25  78 N17       30.04R WCI  19
JEFFERSON CITY CLOUDY    35  27  72 N13       30.04R WCI  26
ROLLA          CLOUDY    33  30  88 N9        29.96R WCI  25
SEDALIA        CLOUDY    30  21  69 N17       30.07R WCI  18
WHITEMAN AFB   CLOUDY    29  22  78 N16       30.05S WCI  17
WARRENSBURG    CLOUDY    28  19  69 NW16G25   30.08S WCI  17
OSAGE BEACH    CLOUDY    34  28  80 N7        29.99S WCI  28

$$
MOZ051-052-059>065-041000-
...EAST CENTRAL MISSOURI...

CITY           SKY/WX    TMP DP  RH WIND       PRES   REMARKS
ST LOUIS INTL  CLOUDY    35  29  78 NW6       30.00R
SPIRIT OF STL  CLOUDY    34  31  88 CALM      29.99R
ST CHARLES     CLOUDY    34  28  79 N12       29.99S WCI  25

$$
MOZ072>076-082>087-097>100-106>115-041000-
...SOUTH CENTRAL AND SOUTHEAST MISSOURI...

CITY           SKY/WX    TMP DP  RH WIND       PRES   REMARKS
CAPE GIRARDEAU LGT RAIN  40  40 100 N9        29.90F FOG
FARMINGTON     CLOUDY    36  34  93 NE9       29.96F WCI  29
POPLAR BLUFF   LGT RAIN  42  40  92 NE7       29.88S FOG
WEST PLAINS    CLOUDY    39  37  92 N14G21    29.90R

$$



USA.gov is the U.S. government's official web portal to all federal, state and local government web resources and services.